Find Starlink 3525

NORAD ID: 51733 Int'l Des: 2022-016 Owner: SPXS Country: US Constellation: starlink operational
LEOCIRCULAR

リアルタイム位置

3D地球を読み込み中...

Starlink 3525について

説明を読み込み中...

次回通過

Passes for default location (London). Set your location on the main map for personalized predictions.

高度履歴

Loading altitude history...

軌道要素

1 51733U 22016V 26123.84946549 -.00000807 00000-0 -32599-4 0 9992
2 51733 53.2172 71.5093 0001348 88.2577 271.8569 15.08839403231891
Epoch: May 3, 2026 • Age: 4 hours

現在のステータス

高度 557.0 km
速度 7.58 km/s
衛星直下点 -47.82°S, 74.04°E
打ち上げ日 Feb 21, 2022
運用期間 4.1 years
タイプ internet

技術仕様

分類 Payload
質量 297.00 kg
乾燥質量 275.00 kg
総質量 297.00 kg
長さ 0.20 m
直径 2.80 m
スパン 9.00 m
形状 Box + pan
製造者 SPXS
バスタイプ Starlink
フェーズステータス In Orbit
所有者/国 SPXS/US

Most Searched